TimeCDT,TemperatureF,Dew PointF,Humidity,Sea Level PressureIn,VisibilityMPH,Wind Direction,Wind SpeedMPH,Gust SpeedMPH,PrecipitationIn,Events,Conditions,WindDirDegrees,DateUTC
12:53 AM,55.0,48.9,80,29.99,10.0,Calm,Calm,-,N/A,,Clear,0,2012-03-25 05:53:00
1:53 AM,54.0,50.0,86,29.98,10.0,Calm,Calm,-,N/A,,Clear,0,2012-03-25 06:53:00
2:53 AM,53.1,50.0,89,29.97,10.0,Calm,Calm,-,N/A,,Clear,0,2012-03-25 07:53:00
3:53 AM,52.0,48.9,89,29.97,10.0,Calm,Calm,-,N/A,,Clear,0,2012-03-25 08:53:00
4:53 AM,50.0,48.0,93,29.98,10.0,Calm,Calm,-,N/A,,Clear,0,2012-03-25 09:53:00
5:53 AM,48.9,48.0,97,29.99,10.0,Calm,Calm,-,N/A,,Clear,0,2012-03-25 10:53:00
6:53 AM,50.0,46.9,89,30.01,10.0,Calm,Calm,-,N/A,,Clear,0,2012-03-25 11:53:00
7:53 AM,53.1,51.1,93,30.03,10.0,Calm,Calm,-,N/A,,Clear,0,2012-03-25 12:53:00
8:53 AM,62.1,51.1,67,30.04,10.0,WNW,8.1,-,N/A,,Clear,300,2012-03-25 13:53:00
9:53 AM,69.1,52.0,54,30.04,10.0,NW,11.5,-,N/A,,Clear,320,2012-03-25 14:53:00
10:53 AM,73.9,50.0,43,30.04,10.0,NNW,8.1,-,N/A,,Clear,340,2012-03-25 15:53:00
11:53 AM,75.9,48.0,37,30.03,10.0,NNW,8.1,18.4,N/A,,Clear,340,2012-03-25 16:53:00
12:53 PM,78.1,46.9,33,30.01,10.0,North,8.1,-,N/A,,Clear,360,2012-03-25 17:53:00
1:53 PM,80.1,50.0,35,29.98,10.0,NW,6.9,17.3,N/A,,Clear,320,2012-03-25 18:53:00
2:53 PM,80.1,48.9,34,29.96,10.0,NNW,12.7,18.4,N/A,,Clear,340,2012-03-25 19:53:00
3:53 PM,79.0,50.0,36,29.96,5.0,NNW,12.7,-,N/A,,Haze,340,2012-03-25 20:53:00
4:53 PM,80.1,50.0,35,29.95,10.0,NNW,13.8,-,N/A,,Partly Cloudy,340,2012-03-25 21:53:00
5:53 PM,79.0,51.1,38,29.95,10.0,NW,9.2,-,N/A,,Clear,320,2012-03-25 22:53:00
6:53 PM,73.9,54.0,50,29.96,10.0,NNW,5.8,-,N/A,,Clear,330,2012-03-25 23:53:00
7:53 PM,70.0,54.0,57,29.97,10.0,NNW,5.8,-,N/A,,Clear,340,2012-03-26 00:53:00
8:53 PM,69.1,53.1,57,29.98,10.0,NNW,3.5,-,N/A,,Clear,340,2012-03-26 01:53:00
9:53 PM,68.0,53.1,59,30.00,10.0,North,4.6,-,N/A,,Clear,360,2012-03-26 02:53:00
10:53 PM,63.0,55.0,75,30.01,10.0,North,3.5,-,N/A,,Clear,360,2012-03-26 03:53:00
11:53 PM,62.1,55.0,78,30.01,10.0,North,3.5,-,N/A,,Clear,360,2012-03-26 04:53:00